Location: Hylvaty SDH
(49.9612°N, 16.4057°E)
Time: 00:38:34
(UTC+02:00)

deb Explorer IX - Visible Passes

Search period start: 03 July 2020 00:00
Search period end: 13 July 2020 00:00
Orbit: 543 x 1102 km, 38.8° (Epoch: 02 July)

Date Brightness Start Highest point End Pass type
(mag) Time Alt. Az. Time Alt. Az. Time Alt. Az.
06 Jul ? 03:58:50 10° S 04:03:10 17° SSE 04:07:39 10° ESE visible
07 Jul ? 03:35:57 10° S 03:40:13 17° SSE 03:44:37 10° ESE visible
08 Jul ? 03:13:32 11° S 03:17:15 17° SSE 03:21:35 10° ESE visible
09 Jul ? 02:51:36 13° S 02:54:17 17° SSE 02:58:30 10° ESE visible
10 Jul ? 02:29:37 15° SSE 02:31:20 16° SSE 02:35:25 10° ESE visible
10 Jul ? 04:11:37 10° SW 04:17:21 30° SSE 04:23:28 10° ESE visible
11 Jul ? 02:07:39 16° SSE 02:08:23 16° SSE 02:12:18 10° ESE visible
11 Jul ? 03:48:56 11° SW 03:54:21 30° SSE 04:00:24 10° ESE visible
12 Jul ? 01:45:39 16° SSE 01:45:39 16° SSE 01:49:11 10° ESE visible
12 Jul ? 03:26:57 14° SW 03:31:23 29° SSE 03:37:19 10° ESE visible
